Location: Corcelles
(46.1547°N, 4.7234°E)
Time: 08:34:03
(UTC+00:00)

Cosmos 2221 Rocket - Pass Details

Date: 14 July 2020
Orbit: 620 x 649 km, 82.5° (Epoch: 14 August)

Event Time Altitude Azimuth Distance (km) Brightness Sun altitude
Rises 02:10:15 0° 346° (NNW) 2,913 7.7 -14.9°
Reaches altitude 10° 02:12:32 10° 341° (NNW) 1,999 6.7 -14.6°
Maximum altitude 02:16:48 50° 266° (W) 793 3.8 -14.2°
Enters shadow 02:19:27 21° 200° (SSW) 1,387 4.8 -13.9°
